Hovedside
METAR-TAF:

METAR-TAF

Lufthavner :

Sandnessjøen lufthavn. Stokka

Sandnessjøen, Norge

breddegrad: 65-58N, lengdegrad: 012-28E, høyde over havet: 1 m

Gjeldene værobservasjon

Denne rapporten ble laget for 21 minutter siden, klokken 14:20 UTC
Vind 3 kt fra Sør-sørvest
Temperatur 25°C
Luftfuktighet 54%
Trykk 1012 hPa
Sikt 10 km eller mer
Få skyer i en høyde av 3500 ft, Tårnskyer (cumulus).
Spredte skyer i en høyde av 20000 ft

METAR: ENST 181420Z 20003KT 9999 FEW035TCU SCT200 25/15 Q1012 RMK WIND 300FT VRB02KT

Tid: 16:41 (14:41 UTC)


TAF: fraværende

Værobservasjoner og værvarsel for over 4000 flyplasser (METAR- og TAF-rapporter).

Tilgjengelige stasjoner er representert av de røde og gule prikkene på kartet.

Hold musepekeren over prikken for å se navnet på stasjonen.

Klikk så for å se værobservasjoner og -varsler.

For å forandre kartet kan du klikke på den grønne knappen med svart kryss for å zoome inn, på den grønne knappen med strek for å zoome ut, eller på de grønne pilene for å se tilstøtende kart.


METAR-TAF: